Location: Toronto
(43.6667°N, 79.4167°W)
Time: 10:46:05
(UTC-04:00)

X-37B - Pass Details

Date: 24 June 2021
Orbit: 383 x 392 km, 45.0° (Epoch: 01 July)

Event Time Altitude Azimuth Distance (km) Brightness Sun altitude
Rises 21:41:05 0° 227° (SW) 2,247 4.5 -6.2°
Reaches altitude 10° 21:43:16 10° 217° (SW) 1,396 3.4 -6.5°
Maximum altitude 21:46:06 31° 152° (SSE) 691 1.4 -6.9°
Drops below altitude 10° 21:48:57 10° 88° (E) 1,401 3.0 -7.3°
Sets 21:51:08 0° 77° (ENE) 2,257 4.1 -7.6°
